Adak, AK (99546)

5:51 PM HDT on July 23, 2016 (GMT -0900)
Adak | | Change Station

Elev 13 ft 51.88 °N, 176.65 °W | Updated 15 minutes ago

Overcast
Overcast
55 °F
Feels Like 55 °F
N
16
Wind Variable Wind from West
Gusts 26 mph

Today
High -- | Low -- °F
--% Chance of Precip.
Yesterday
High -- | Low -- °F
Precip. -- in
Pressure 30.24 in
Visibility 3.0 miles
Clouds Few 2800 ft
Mostly Cloudy 3900 ft
Overcast 4800 ft
Dew Point 46 °F
Humidity 72%
Rainfall 0.00 in
Snow Depth Not available.
6:56 AM 10:48 PM
Waning Gibbous, 80% visible
METAR PADK 240236Z AUTO 26014G23KT 3SM FEW028 BKN039 OVC048 13/08 A3024 RMK AO1
Pressure 30.24 in
Visibility 3.0 miles
Clouds Few 2800 ft
Mostly Cloudy 3900 ft
Overcast 4800 ft
Dew Point 46 °F
Humidity 72%
Rainfall 0.00 in
Snow Depth Not available.
6:56 AM 10:48 PM
Waning Gibbous, 80% visible
METAR PADK 240236Z AUTO 26014G23KT 3SM FEW028 BKN039 OVC048 13/08 A3024 RMK AO1

10-Day Weather Forecast

Almanac

Astronomy

Jul. 23, 2016 Rise Set
Actual Time
Civil Twilight
Nautical Twilight
Astronomical Twilight
Moon
Length of Visible Light
Length of Day
Tomorrow will be .
, % of the Moon is Illuminated

Today's Extremes

State Highs State Lows

Community

WunderPhotos

Upload Photos

1,927,004 photos uploaded!

WunderBlog® & News

Nearby

Air Quality

  Air Quality AQ Index Pollutant
Not available.

Snow Depth

Station Depth Elevation

Earthquake Activity

City Distance Mag. Time & Date
Minimum magnitude displayed is 2.5.

Coastal Water Temperatures

Place Temperature

Stations

Nearby Weather Stations

Station Location Temp. Windchill Dew Point Humidity Wind Precip. Elev Updated Type
                   

Watches & Warnings

There are currently no watches in effect.